Theta_e
308 308 308 308 308 309 309 307 307 307 307 307 311 312 312 310 309 309 310 312 310 312 317 317 314 318 319 319 320 319 315 316 317 319 321 330 329 324 327 335 338 339 343 344 347
308 308 308 309 309 308 309 309 308 308 308 309 312 312 311 309 309 310 312 311 310 310 318 317 318 317 318 318 320 317 313 315 316 319 320 321 320 322 326 336 338 345 349 351 354
308 309 309 309 309 309 308 309 308 308 309 310 312 313 312 309 309 312 316 316 315 309 314 317 315 316 318 317 318 316 315 316 319 322 322 321 322 322 323 331 340 348 354 353 353
309 309 309 309 309 310 309 309 309 308 309 310 312 312 312 309 309 317 317 317 313 312 310 313 316 316 312 314 316 316 315 318 319 320 320 319 321 320 322 324 327 340 351 353 352
309 309 309 309 309 310 309 309 309 308 309 311 311 312 311 309 311 311 311 312 315 313 310 312 316 316 313 312 314 313 313 316 318 318 319 318 319 320 321 324 326 338 346 349 349
309 309 309 309 309 310 309 309 309 308 309 311 312 312 310 309 311 312 316 315 315 311 310 313 316 317 316 314 313 315 314 315 317 317 317 317 318 319 323 325 325 332 341 345 348
309 309 309 309 309 310 310 311 314 315 315 313 312 311 311 313 312 312 312 315 316 311 311 315 317 317 317 314 315 314 313 312 313 316 315 318 317 320 326 323 323 329 339 346 348
309 309 309 309 309 311 314 315 314 314 316 315 313 311 314 316 314 312 313 316 316 312 314 315 317 316 315 314 312 312 311 313 312 315 317 317 316 318 323 327 328 334 341 347 351
309 309 309 308 309 313 316 315 314 315 317 315 313 312 315 314 318 319 315 316 317 316 315 316 316 316 313 310 309 308 312 312 313 314 316 316 316 317 321 328 337 344 348 352 352
309 309 309 308 309 315 315 315 313 315 314 314 312 312 315 316 316 316 319 317 316 316 316 315 313 307 304 306 309 311 312 311 313 314 313 313 314 315 326 329 330 329 342 352 353
309 309 308 307 310 315 314 313 310 310 310 310 311 312 312 314 314 315 318 318 316 315 312 312 308 308 308 308 310 310 311 312 311 312 314 312 312 313 321 324 327 328 326 345 351
308 309 307 308 312 314 312 310 308 308 307 311 312 312 313 313 313 315 315 318 315 314 310 309 309 309 309 309 310 311 311 310 310 310 311 311 311 311 313 319 325 327 328 329 346
308 308 308 310 312 311 310 309 310 310 309 311 316 316 316 315 313 314 314 317 312 311 309 310 312 310 311 311 310 310 310 311 311 311 311 311 310 313 314 316 320 324 326 329 336
308 308 309 310 311 309 309 308 311 312 308 312 316 315 315 315 314 316 316 315 311 311 309 309 310 311 310 312 310 311 310 312 312 312 311 311 311 311 312 314 315 320 325 327 327
307 310 309 309 309 309 310 308 313 313 310 314 313 314 314 313 313 315 314 314 314 312 310 311 312 311 311 310 311 311 312 311 312 311 311 312 310 310 311 312 312 314 320 322 325
308 310 310 310 310 310 311 310 313 312 314 314 311 311 310 311 312 312 310 313 312 312 312 311 313 313 312 312 312 314 314 311 308 309 312 313 311 311 311 313 314 314 318 320 323
308 308 310 310 307 311 311 313 310 314 310 310 309 311 309 308 310 309 309 307 308 313 312 313 315 313 315 315 313 314 312 313 314 313 316 313 310 312 312 312 313 313 318 319 319
308 308 309 310 306 310 310 309 313 309 308 308 309 311 308 308 309 308 309 308 306 310 311 315 316 313 313 317 318 314 311 313 316 315 315 311 313 312 312 315 319 317 317 318 318
308 308 310 306 307 311 312 305 305 306 307 307 308 308 307 307 307 310 306 306 306 308 311 311 313 312 317 313 314 317 312 311 313 313 312 312 313 315 318 318 317 318 318 318 320
308 309 309 305 309 312 304 306 305 306 306 306 307 306 305 305 306 309 309 305 305 306 308 307 310 311 312 313 311 314 311 316 312 316 316 313 314 318 320 318 317 317 318 320 322
307 307 306 306 308 308 302 304 306 305 306 305 306 304 304 303 303 303 305 302 303 305 306 305 309 309 310 309 309 313 309 309 314 312 313 314 314 320 318 316 316 316 320 320 322
305 302 305 305 303 299 300 302 305 303 304 304 303 303 303 301 302 302 305 303 303 307 305 302 305 307 308 306 305 305 305 306 315 318 312 311 313 317 316 315 315 315 315 320 320
304 305 305 305 300 299 301 303 304 303 303 303 302 302 301 301 300 302 302 302 302 306 302 300 300 302 299 306 306 306 303 303 306 308 314 319 317 308 311 314 314 314 315 316 321
304 300 304 303 302 300 300 302 304 304 303 302 302 301 300 300 300 300 300 302 301 302 303 303 302 300 297 302 306 305 304 302 305 309 308 308 311 309 309 311 313 311 313 316 318
303 300 300 299 300 299 300 301 303 304 303 302 301 301 301 300 299 298 300 300 300 302 301 297 298 302 303 302 302 303 303 301 301 302 304 307 305 304 309 311 309 309 313 314 318
302 301 301 300 300 299 299 301 303 303 302 301 302 302 300 300 299 300 300 299 299 299 299 296 296 301 301 301 302 302 301 300 300 300 300 301 301 302 306 305 306 308 313 314 319
300 301 300 299 298 299 299 301 302 302 302 303 302 300 301 301 302 302 301 301 300 298 296 297 296 297 299 300 300 299 300 300 300 300 299 299 300 306 305 305 306 307 313 314 317
Wind_Speed
24 24 24 23 22 21 20 19 18 17 15 12 12 14 16 17 18 20 25 19 14 12 10 14 21 20 13 6 8 4 3 4 7 7 4 1 2 6 5 11 14 16 13 10 21
26 26 25 24 23 22 21 19 17 16 15 12 12 14 15 16 19 25 17 15 14 19 19 14 13 19 9 6 6 5 3 10 7 5 3 3 7 7 4 6 10 17 11 11 29
27 27 26 25 24 22 20 19 17 15 14 13 13 13 14 15 17 1 3 4 1 20 23 17 9 15 8 6 7 6 6 6 5 6 3 3 7 12 8 2 11 20 23 17 26
28 28 28 28 25 21 19 18 17 15 14 13 12 12 12 11 4 2 7 9 13 20 26 20 17 12 5 5 6 2 9 8 6 6 3 6 6 7 10 23 14 20 27 26 23
30 30 29 28 26 21 18 17 17 15 13 12 12 11 10 8 12 9 14 15 11 21 30 25 19 10 7 5 4 4 5 8 15 18 19 14 14 11 19 22 16 14 23 28 28
32 32 31 29 26 20 17 16 15 14 13 12 11 9 8 5 6 6 6 7 7 23 28 23 13 16 7 5 6 6 7 11 14 18 10 6 9 10 23 18 11 13 25 26 30
34 33 31 29 25 20 15 13 14 15 14 11 10 9 12 18 12 12 12 6 2 17 24 22 8 15 8 1 4 8 5 6 5 9 7 8 6 13 45 24 19 16 21 31 38
34 34 32 29 23 16 12 14 12 17 11 10 9 10 10 15 12 13 9 4 6 12 13 18 17 5 3 2 5 3 3 1 5 2 5 11 9 8 29 32 18 19 24 30 34
34 35 33 27 20 11 12 14 16 14 6 6 7 8 10 5 5 12 7 9 8 9 11 6 7 6 3 4 4 5 3 4 6 3 3 6 5 4 11 24 9 18 26 31 35
35 35 32 25 16 8 12 14 17 6 5 8 8 7 5 1 5 14 3 11 7 8 6 6 4 3 3 4 6 5 4 4 4 3 4 6 6 7 2 18 20 14 17 26 33
37 36 30 21 12 7 12 12 18 4 18 17 25 22 32 20 15 6 4 2 14 5 5 6 3 6 10 8 7 5 4 5 3 5 2 7 5 10 14 13 25 28 23 27 37
38 35 26 16 5 8 9 10 16 15 16 27 20 23 26 28 12 12 6 7 6 7 5 3 6 11 8 3 6 5 5 5 6 5 5 5 9 10 8 15 28 40 49 31 41
37 32 22 12 5 12 11 17 16 15 5 13 7 5 9 4 7 17 9 8 6 4 7 8 7 5 7 5 5 4 5 4 8 5 3 3 7 5 8 18 28 34 46 40 40
35 25 17 9 2 17 14 21 13 6 4 7 5 8 10 2 1 11 5 11 2 11 7 5 5 8 5 5 8 6 8 8 6 2 4 4 5 6 7 9 8 25 30 39 40
34 19 13 14 9 20 24 19 4 1 4 9 7 9 11 8 12 14 16 5 6 5 6 9 5 6 6 8 8 8 7 8 5 5 3 4 2 7 3 6 10 11 28 34 43
33 16 11 14 15 20 23 12 3 5 5 7 7 9 7 14 11 16 13 15 6 3 2 6 3 5 8 6 7 5 4 5 5 3 2 5 7 5 5 7 5 8 33 29 33
32 16 9 16 30 22 22 1 4 3 6 7 5 7 5 7 7 11 6 12 7 8 8 8 3 5 8 3 4 4 5 2 3 0 10 2 5 8 8 9 9 9 19 21 17
29 23 10 15 24 18 12 4 3 3 3 3 5 3 5 7 5 8 3 5 7 4 2 5 3 8 9 1 3 4 8 6 6 5 7 4 6 6 8 9 20 9 9 15 14
30 15 2 23 18 9 2 5 3 2 4 6 4 4 4 5 4 5 6 6 4 5 3 5 5 4 3 4 1 3 3 6 2 1 3 4 7 2 14 13 18 20 16 15 13
30 8 13 28 10 6 6 3 1 3 5 4 1 4 4 6 6 5 2 4 5 8 0 2 5 3 6 3 7 5 3 2 2 4 4 4 2 3 12 13 14 15 20 23 20
24 6 21 22 6 11 4 1 2 6 3 4 2 2 2 3 2 4 3 3 4 4 5 2 2 6 4 5 4 4 4 4 2 3 4 3 2 3 5 7 9 10 22 26 24
17 4 24 20 9 5 2 5 7 5 5 5 3 3 1 3 3 1 2 2 6 4 2 3 3 2 3 8 14 9 4 3 1 2 1 2 4 6 7 8 12 17 24 27 28
17 8 13 17 4 4 6 4 3 3 3 2 1 1 1 1 3 1 2 3 7 2 1 2 2 2 6 3 3 5 4 3 2 1 4 5 4 8 13 13 20 19 27 28 28
9 4 7 13 8 3 4 4 5 5 2 3 2 4 2 1 1 3 2 1 3 2 4 3 2 4 5 3 1 4 10 4 2 1 5 6 6 9 13 12 16 27 31 29 25
9 2 3 4 4 3 1 3 4 6 6 7 3 2 2 2 2 3 2 3 3 3 3 4 3 3 5 5 6 8 11 7 8 7 6 4 12 13 13 8 16 24 30 29 23
5 5 4 3 6 4 3 2 3 4 3 3 4 8 4 4 4 4 1 2 5 2 2 2 2 3 4 10 9 12 12 13 11 10 18 15 23 13 16 11 15 25 21 25 19
6 4 3 3 3 2 2 2 2 5 6 2 5 3 3 2 10 12 13 12 11 6 5 5 4 2 3 2 4 8 17 14 6 6 7 9 13 8 5 9 12 18 18 13 18
Wind_Direction
2 357 351 345 341 338 336 333 332 328 325 318 313 312 311 305 296 283 274 278 255 218 196 200 199 206 205 209 211 194 80 185 193 169 237 234 34 299 252 265 221 209 235 220 191
2 357 352 346 340 336 333 330 330 326 323 317 314 315 315 312 304 291 301 266 242 208 196 178 186 189 184 199 196 159 156 204 200 199 166 218 265 293 260 249 225 207 181 183 182
360 356 351 346 341 335 331 326 326 324 320 316 311 314 316 317 315 43 65 58 269 202 203 200 181 183 194 197 197 180 203 202 242 209 283 231 256 287 290 236 219 198 187 179 186
356 354 350 346 341 336 331 324 321 322 320 315 311 311 310 311 307 26 296 302 316 209 196 196 178 162 153 192 210 202 233 227 195 214 254 262 279 281 256 274 289 228 201 192 197
354 352 349 345 341 335 330 324 320 317 315 313 308 305 302 289 270 286 281 288 309 201 192 192 180 158 163 192 211 212 238 239 257 265 263 264 253 247 267 273 287 228 201 207 209
354 351 348 345 339 334 333 326 320 317 309 310 304 295 287 275 292 295 330 307 313 195 186 192 204 193 178 194 170 235 238 253 261 262 247 214 259 211 257 263 270 225 216 213 209
351 349 347 344 339 337 338 338 331 315 301 299 291 282 281 277 284 268 291 327 242 194 193 197 201 179 196 200 273 262 289 303 242 257 212 212 255 200 244 265 256 256 232 217 212
350 348 347 343 339 339 340 338 320 327 302 281 281 280 264 301 289 278 266 214 178 199 194 212 205 223 234 276 356 336 64 312 279 6 241 172 250 225 248 233 238 228 221 221 208
349 347 347 342 338 339 339 337 330 326 317 288 279 280 275 343 32 19 223 214 199 193 210 224 206 225 172 102 10 352 235 224 308 249 257 175 257 300 283 197 261 230 217 203 207
349 347 347 342 338 336 344 334 333 334 348 313 276 298 254 188 339 341 343 221 170 192 187 193 177 103 45 106 210 223 223 241 221 286 44 313 273 313 140 150 181 241 245 203 205
349 349 349 346 347 342 342 347 8 336 309 275 273 265 280 293 296 267 314 173 214 164 165 188 128 194 217 198 203 210 202 230 248 240 252 254 255 271 232 218 204 217 236 214 211
351 351 354 357 39 25 8 49 3 323 298 304 291 274 279 272 293 259 240 181 159 195 134 71 218 224 218 178 194 202 239 270 274 261 175 269 271 260 218 225 213 207 233 236 218
353 354 -0 4 52 22 28 354 338 322 279 300 319 326 351 341 214 279 235 203 176 190 185 181 221 185 176 183 165 207 189 224 234 297 252 276 292 232 265 217 225 221 221 220 218
356 358 7 10 352 360 1 346 329 302 39 287 355 11 3 1 260 27 287 228 192 204 201 216 243 198 181 213 167 236 209 231 249 135 256 152 280 252 256 233 222 221 222 218 222
357 358 10 16 353 353 341 341 325 149 338 332 358 355 16 74 331 2 11 236 223 197 119 232 200 186 196 212 177 223 207 205 215 209 71 240 231 269 294 260 250 248 238 233 231
357 351 344 348 339 338 339 338 149 46 257 353 15 354 13 6 9 354 11 38 32 355 333 237 211 179 219 235 193 199 145 52 52 108 252 189 183 264 215 208 250 221 241 247 231
355 345 328 342 345 330 332 345 40 156 347 356 332 348 38 350 7 10 58 50 29 5 18 342 317 355 29 28 9 120 79 297 312 163 248 231 137 234 242 238 230 228 250 251 247
352 339 277 342 338 326 333 55 191 13 344 359 341 330 46 357 357 8 57 42 20 38 8 16 327 13 336 339 250 212 165 166 228 209 258 123 232 252 253 13 10 353 302 285 284
349 355 355 342 341 353 19 63 188 293 303 341 317 19 359 344 335 47 46 357 51 26 63 15 275 341 345 344 18 314 181 155 177 356 97 230 288 303 4 1 357 349 352 349 327
351 5 2 346 348 1 74 126 84 344 343 38 44 13 358 335 2 22 70 1 2 356 125 121 287 22 295 337 15 69 352 67 7 208 233 268 280 301 347 341 342 342 343 358 346
354 1 350 359 16 55 94 4 334 8 48 33 28 31 52 332 302 358 1 52 354 331 84 29 162 305 341 41 282 336 23 -0 125 140 196 214 273 331 304 312 324 330 344 4 6
354 11 350 6 47 35 54 318 330 347 22 40 81 69 76 358 322 21 88 83 352 348 43 21 142 292 258 88 57 65 48 48 65 207 226 177 244 332 323 312 338 344 347 6 15
341 320 353 19 67 5 320 313 349 4 9 55 92 82 46 358 322 29 26 186 56 105 133 309 353 6 351 347 39 50 47 35 232 12 237 165 216 32 356 342 342 348 353 358 11
350 356 5 53 72 90 5 304 328 359 36 12 81 58 70 283 289 295 268 314 314 203 77 99 140 168 194 230 174 290 316 351 107 229 334 258 320 348 343 335 337 346 343 348 4
10 45 13 330 2 358 266 334 339 357 351 21 60 73 196 259 284 278 278 310 286 242 109 116 208 206 238 270 279 268 284 271 235 219 224 267 308 307 314 309 324 333 340 343 356
15 359 348 305 304 340 5 28 33 339 305 344 53 314 261 228 222 258 241 236 246 333 110 19 245 189 262 237 242 267 259 253 256 247 254 264 272 264 264 300 341 337 329 344 356
7 338 330 344 348 6 249 81 0 350 282 46 347 312 239 216 294 274 269 252 244 203 196 169 167 127 268 193 236 274 250 231 223 216 228 244 265 272 279 291 302 322 310 327 4